This demonstration page uses our WeatherBlox Daily Observations layout. Learn more.

Left ArrowRight Arrow

Hourly Observations for December 24, 2016

Temp ( °F °C ) Dew Point ( °F °C ) Humidity (%) Winds ( mph kmh ) Pressure ( in mb ) Visibility ( mi km ) Precip ( " mm )
12:51 am 00:51 Clear 43 6.1 40 4.4 89 89 E 8 13 29.93 1013 10 16 0.00 0.00
1:51 am 01:51 Clear 49 9.4 40 4.4 71 71 ESE 15 24 29.89 1012 10 16 0.00 0.00
2:51 am 02:51 Clear 46 7.8 40 4.4 79 79 SSE 12 19 29.89 1012 10 16 0.00 0.00
3:51 am 03:51 Clear 48 8.9 39 3.9 71 71 ESE 12 19 29.87 1012 10 16 0.00 0.00
4:51 am 04:51 Clear 46 7.8 39 3.9 77 77 ESE 8 13 29.85 1011 10 16 0.00 0.00
5:51 am 05:51 Clear 47 8.3 39 3.9 74 74 ESE 18 30 29.83 1010 10 16 0.00 0.00
6:51 am 06:51 Clear 49 9.4 39 3.9 69 69 ESE 20 31 29.82 1010 10 16 0.00 0.00
7:51 am 07:51 Sunny 48 8.9 39 3.9 71 71 ESE 15 24 29.83 1010 10 16 0.00 0.00
8:51 am 08:51 Sunny 53 11.7 40 4.4 61 61 E 15 24 29.82 1010 10 16 0.00 0.00
9:51 am 09:51 Sunny 58 14.4 42 5.6 56 56 E 15 24 29.80 1009 10 16 0.00 0.00
10:51 am 10:51 Sunny 61 16.1 41 5 48 48 E 17 28 29.77 1008 10 16 0.00 0.00
11:51 am 11:51 Mostly Sunny 64 17.8 43 6.1 46 46 ENE 15 24 29.71 1006 10 16 0.00 0.00
12:44 pm 12:44 Sunny 68 20 39 3.9 35 35 S 22 35 29.56 1001 10 16 0.00 0.00
12:51 pm 12:51 Sunny 69 20.6 39 3.9 33 33 S 22 35 29.63 1003 10 16 0.00 0.00
1:51 pm 13:51 Sunny 70 21.1 34 1.1 27 27 S 21 33 29.55 1001 10 16 0.00 0.00
2:51 pm 14:51 Sunny 71 21.7 31 -0.6 23 23 SSW 23 37 29.52 1000 10 16 0.00 0.00
3:51 pm 15:51 Partly Cloudy 66 18.9 35 1.7 32 32 W 10 17 29.53 1000 10 16 0.00 0.00
4:51 pm 16:51 Partly Cloudy 63 17.2 35 1.7 35 35 SSW 22 35 29.56 1001 10 16 0.00 0.00
5:51 pm 17:51 Partly Cloudy 61 16.1 31 -0.6 32 32 WSW 24 39 29.62 1003 10 16 0.00 0.00
6:01 pm 18:01 Mostly Cloudy 49 9.4 35 1.7 59 59 NW 26 43 29.68 1005 10 16 0.00 0.00
6:51 pm 18:51 Cloudy 43 6.1 34 1.1 71 71 NW 40 65 29.71 1006 10 16 0.00 0.00
7:46 pm 19:46 Cloudy with Heavy Rain 37 3 34 1 87 87 NNW 24 39 29.83 1010 4 6 0.04 1.02
7:51 pm 19:51 Cloudy with Heavy Rain 37 2.8 35 1.7 93 93 NNW 25 41 29.76 1008 3 5 0.06 1.52
8:51 pm 20:51 Cloudy with Light Rain 38 3.3 35 1.7 89 89 NW 23 37 29.77 1008 9 14 0.02 0.51
9:39 pm 21:39 Cloudy 38 3.3 35 1.7 89 89 NW 12 19 29.88 1012 10 16 0.04 1.02
9:51 pm 21:51 Cloudy 39 3.9 34 1.1 82 82 NW 8 13 29.78 1009 10 16 0.04 1.02
10:51 pm 22:51 Cloudy 40 4.4 33 0.6 77 77 WNW 3 6 29.81 1010 10 16 0.00 0.00
11:51 pm 23:51 Mostly Cloudy 39 3.9 35 1.7 86 86 S 9 15 29.80 1009 10 16 0.00 0.00

Powered by AerisWeather